Regional Weather Roundup
Issued by NWS Cleveland, OH

Home | Current Version | Previous Version | Graphics & Text | Print | Product List | Glossary On
Versions: 1 2 3 4 5 6 7 8 9 10 11 12 13 14 15 16 17 18 19 20 21 22 23 24 25 26 27 28 29 30 31 32 33 34 35 36 37 38 39 40 41 42 43 44 45 46 47 48 49 50
587
ASUS41 KCLE 301810
RWRCLE
OHIO REGIONAL WEATHER ROUNDUP
NATIONAL WEATHER SERVICE WILMINGTON, OH
200 PM EDT SAT JUL 30 2016

NOTE: "FAIR" INDICATES FEW OR NO CLOUDS BELOW 12,000 FEET WITH NO
SIGNIFICANT WEATHER AND/OR OBSTRUCTIONS TO VISIBILITY.

OHZ001>008-015>018-024>027-034-035-043-044-301900-
   NORTHWEST OHIO

CITY           SKY/WX    TMP DP  RH WIND       PRES   REMARKS
DEFIANCE       CLOUDY    78  68  71 N5        29.97S
FINDLAY        FAIR      83  68  60 SW10      29.95S
TOLEDO EXPRESS CLOUDY    75  71  87 E10       29.96S
TOLEDO EXEC    HVY RAIN  74  71  91 NE8       29.97S FOG
LIMA           PTSUNNY   79  69  71 SW8       29.97F
$$

OHZ009>014-019>023-028>033-038-089-301900-
   NORTHEAST OHIO

CITY           SKY/WX    TMP DP  RH WIND       PRES   REMARKS
CLE-HOPKINS    LGT RAIN  76  70  82 E10       29.96S
CLE-LAKEFRONT  LGT RAIN  77  71  82 NE14      29.93S
CUY CO. ARPT   PTSUNNY   79  73  83 NE7       29.95F
LORAIN-ELYRIA  PTSUNNY   77  71  82 NE8       29.95F
ASHTABULA      CLOUDY    78  70  76 SE7       29.97F
AKRON-CANTON   PTSUNNY   82  67  60 S10       29.95F
WOOSTER        TSTM      69  61  75 E14G49    29.97R VSB 1/4
MANSFIELD      LGT RAIN  82  70  66 N7        29.96F
YOUNGSTOWN     PTSUNNY   78  69  73 SE9       29.97F
$$

OHZ042-051>053-060>062-070>072-077>081-301900-
  SOUTHWEST OHIO

CITY           SKY/WX    TMP DP  RH WIND       PRES   REMARKS
CINC-COVINGTON PTSUNNY   84  69  60 SW8       29.98F
CINC-LUNKEN    PTSUNNY   83  70  64 W6        29.97F
HAMILTON       FAIR      85  68  56 SW9       29.98F
DAYTON         PTSUNNY   83  66  56 W9        29.98F
WRIGHT-PAT AFB MOSUNNY   84  68  59 W9        29.96F
DAYTON GENERAL FAIR      84  65  52 NW8       29.97F
WILMINGTON     FAIR      83  68  60 W13       29.98F
$$

OHZ036-037-039>041-045>050-054>059-063>069-073>076-082>088-301900-
  CENTRAL AND SOUTHEAST OHIO

CITY           SKY/WX    TMP DP  RH WIND       PRES   REMARKS
COLUMBUS       FAIR      83  69  62 SW12G18   29.95F
OSU AIRPORT    FAIR      84  72  67 SW13      29.95F
BOLTON FIELD   PTSUNNY   81  72  74 SW12      29.98
RICKENBACK AFB PTSUNNY   81  71  71 SW12      29.96F
NEWARK         FAIR      84  70  62 SW8       29.95F
MARION         LGT RAIN  79  69  71 W6        29.96S
LANCASTER      FAIR      82  70  66 SW9       29.97F
ZANESVILLE     PTSUNNY   84  69  60 VRB6      29.96F
NEW PHILLY     PTSUNNY   83  68  60 NW5       29.95F
$$




USA.gov is the U.S. government's official web portal to all federal, state and local government web resources and services.